Overview Statistics Trail Chart Weather Telemetry Raw packets
 

This is the latest recevied weather packets stored in our database for station/object XE2RCS-1. If no packets are shown the sender has not sent any weather packets the latest 10 day(s).

<< 14 15 16 17 18 19 20 >>
Time Temp. Humidity Pressure Rain* Wind** Luminosity Snow
1788452812 27.22° C 41% 1019 hPa 0 mm - - -
1788452211 27.78° C 41% 1019 hPa 0 mm - - -
1788451611 27.78° C 41% 1019 hPa 0 mm - - -
1788451010 27.22° C 42% 1017 hPa 0 mm - - -
1788450409 26.11° C 43% 1017 hPa 0 mm - - -
1788449809 25.56° C 44% 1017 hPa 0 mm - - -
1788449208 25° C 45% 1019 hPa 0 mm - - -
1788448608 25° C 46% 1019 hPa 0 mm - - -
1788448007 25° C 48% 1019 hPa 0 mm - - -
1788447406 25° C 49% 1017 hPa 0 mm - - -
1788446806 25° C 56% 1018 hPa 0 mm - - -
1788446205 25° C 69% 1018 hPa 0 mm - - -
1788445617 25° C 69% 1020 hPa 0 mm - - -
1788445004 24.44° C 69% 1020 hPa 0 mm - - -
1788444403 23.33° C 68% 1020 hPa 0 mm - - -
1788443802 23.33° C 58% 1017 hPa 0 mm - - -
1788443202 22.22° C 74% 1017 hPa 0 mm - - -
1788442601 22.22° C 74% 1017 hPa 0 mm - - -
1788442001 22.22° C 75% 1019 hPa 0 mm - - -
1788441400 22.22° C 76% 1019 hPa 0 mm - - -
1788440800 20.56° C 65% 1017 hPa 0 mm - - -
1788440199 20.56° C 66% 1017 hPa 0 mm - - -
1788439598 20.56° C 65% 1017 hPa 0 mm - - -
1788438997 20.56° C 65% 1017 hPa 0 mm - - -
1788438397 20.56° C 64% 1019 hPa 0 mm - - -

* Rain latest hour (hover to see other rain measurements)
** Current wind speed in m/s (hover to see current wind gust speed)